TimeMDT,TemperatureF,Dew PointF,Humidity,Sea Level PressureIn,VisibilityMPH,Wind Direction,Wind SpeedMPH,Gust SpeedMPH,PrecipitationIn,Events,Conditions,WindDirDegrees,DateUTC
12:53 AM,48.0,30.0,50,29.86,10.0,SW,5.8,-,N/A,,Overcast,220,2014-04-12 06:53:00
1:53 AM,41.0,30.0,65,29.88,10.0,Calm,Calm,-,N/A,,Partly Cloudy,0,2014-04-12 07:53:00
2:53 AM,41.0,28.9,62,29.89,10.0,WNW,6.9,-,N/A,,Clear,290,2014-04-12 08:53:00
3:53 AM,39.0,30.0,70,29.91,10.0,West,6.9,-,N/A,,Mostly Cloudy,280,2014-04-12 09:53:00
4:53 AM,39.0,30.9,73,29.91,10.0,WNW,5.8,-,N/A,,Overcast,300,2014-04-12 10:53:00
5:53 AM,37.9,30.9,76,29.92,10.0,West,4.6,-,N/A,,Overcast,260,2014-04-12 11:53:00
6:53 AM,39.0,33.1,79,29.92,10.0,West,6.9,-,N/A,,Overcast,280,2014-04-12 12:53:00
7:53 AM,37.9,34.0,86,29.95,10.0,WNW,4.6,-,N/A,,Overcast,300,2014-04-12 13:53:00
8:21 AM,39.2,33.8,81,29.91,10.0,West,5.8,-,N/A,,Overcast,280,2014-04-12 14:21:00
8:53 AM,39.0,33.1,79,29.97,10.0,NNW,4.6,-,N/A,,Overcast,330,2014-04-12 14:53:00
9:27 AM,37.4,33.8,87,29.92,10.0,NNW,6.9,-,0.00,Rain,Light Rain,340,2014-04-12 15:27:00
9:53 AM,37.9,34.0,86,30.00,7.0,NW,5.8,-,0.01,Rain,Light Rain,310,2014-04-12 15:53:00
10:01 AM,37.4,35.6,93,29.93,8.0,NW,5.8,-,0.00,Rain,Light Rain,310,2014-04-12 16:01:00
10:53 AM,37.9,34.0,86,30.01,10.0,North,15.0,20.7,0.03,Rain,Light Rain,350,2014-04-12 16:53:00
11:11 AM,35.6,32.0,87,29.95,2.5,North,17.3,24.2,0.00,Snow,Light Snow,350,2014-04-12 17:11:00
11:17 AM,35.6,30.2,81,29.96,1.2,NNW,21.9,28.8,0.00,Snow,Light Snow,340,2014-04-12 17:17:00
11:29 AM,33.8,28.4,81,29.97,0.8,NNW,21.9,28.8,0.00,Snow,Light Snow,340,2014-04-12 17:29:00
11:34 AM,33.8,28.4,81,29.97,1.5,NNW,25.3,29.9,0.00,Snow,Light Snow,340,2014-04-12 17:34:00
11:36 AM,33.8,28.4,81,29.97,3.0,NNW,23.0,29.9,0.00,Snow,Light Snow,340,2014-04-12 17:36:00
11:45 AM,33.8,28.4,81,29.98,3.0,NNW,18.4,27.6,0.00,Snow,Light Snow,330,2014-04-12 17:45:00
11:53 AM,34.0,28.0,79,30.06,3.0,NNW,16.1,24.2,0.00,Snow,Light Snow,340,2014-04-12 17:53:00
12:03 PM,33.8,28.4,81,29.99,2.0,NNW,17.3,25.3,0.00,Snow,Light Snow,340,2014-04-12 18:03:00
12:31 PM,32.0,26.6,80,29.99,4.0,North,20.7,28.8,0.00,Snow,Light Snow,350,2014-04-12 18:31:00
12:53 PM,32.0,27.0,82,30.09,9.0,North,20.7,31.1,0.00,,Overcast,350,2014-04-12 18:53:00
1:53 PM,33.1,24.1,70,30.12,10.0,North,21.9,29.9,N/A,,Overcast,350,2014-04-12 19:53:00
2:53 PM,35.1,23.0,61,30.12,10.0,North,21.9,28.8,N/A,,Overcast,360,2014-04-12 20:53:00
3:53 PM,34.0,21.9,61,30.13,10.0,North,18.4,26.5,N/A,,Overcast,360,2014-04-12 21:53:00
4:53 PM,34.0,21.0,59,30.14,10.0,North,19.6,28.8,N/A,,Overcast,360,2014-04-12 22:53:00
5:53 PM,32.0,19.0,59,30.18,10.0,North,21.9,27.6,N/A,,Overcast,360,2014-04-12 23:53:00
6:53 PM,30.9,21.0,67,30.21,10.0,North,18.4,-,N/A,,Overcast,350,2014-04-13 00:53:00
7:53 PM,28.9,19.9,69,30.24,10.0,North,15.0,-,N/A,,Overcast,350,2014-04-13 01:53:00
8:53 PM,28.9,18.0,64,30.26,10.0,NNW,12.7,-,N/A,,Overcast,340,2014-04-13 02:53:00
9:53 PM,28.0,18.0,66,30.28,10.0,NNW,11.5,-,N/A,,Overcast,340,2014-04-13 03:53:00
10:53 PM,27.0,17.1,66,30.30,10.0,NNW,13.8,-,N/A,,Overcast,330,2014-04-13 04:53:00
11:53 PM,27.0,18.0,69,30.32,10.0,NNW,12.7,-,N/A,,Overcast,340,2014-04-13 05:53:00